Regional Weather Roundup
Issued by NWS Binghamton, NY

Current Version | Previous Version | Text Only | Print | Product List | Glossary On
Versions: 1 2 3 4 5 6 7 8 9 10 11 12 13 14 15 16 17 18 19 20 21 22 23 24 25 26 27 28 29 30 31 32 33 34 35 36 37 38 39 40 41 42 43 44 45 46 47 48 49 50
000
ASUS41 KBGM 191010
RWRBGM

REGIONAL WEATHER ROUNDUP
NATIONAL WEATHER SERVICE BINGHAMTON NY
500 AM EST SUN NOV 19 2017

Note: "fair" indicates few or no clouds below 12,000 feet with no
significant weather and/or obstructions to visibility.

* = Station(s) that does not report precipitation, such as rain,
snow, etc, also no thunder or fog.

NYZ009-015>018-022>025-036-037-044>046-055>057-062-191100
...Central New York...

CITY           SKY/WX    TMP DP  RH WIND       PRES   REMARKS
Binghamton     CLOUDY    51  47  86 SW17G25   29.09R
Cortland       RAIN      46  43  87 W25G35    29.13R
Dansville      LGT RAIN  38  32  79 NW10G23   29.32R WCI  31
Elmira         LGT RAIN  43  40  89 W18G36    29.23R
Seneca Falls   LGT RAIN  39  37  93 W15G31    29.21R WCI  31
Ithaca         LGT RAIN  39  37  93 NW23G41   29.21R WCI  29
Hamilton       CLOUDY    50  46  87 SW12G17   29.06R
Monticello     CLOUDY    51  50  96 S17G25    29.17F
Oneonta        DRIZZLE   48 N/A N/A SW10G21   29.08F
Penn Yan       LGT RAIN  39  34  82 W15G26    29.22R WCI  31
Rome           LGT RAIN  48  47  96 E5        29.06S
Sidney         CLOUDY    54  52  94 W7G16     29.08F
Syracuse       LGT RAIN  46  45  96 W38G47    29.10R
$$

PAZ038>040-043-044-047-048-072-191100
...Northeast Pennsylvania...

CITY           SKY/WX    TMP DP  RH WIND       PRES   REMARKS
Hazleton       CLOUDY    52  50  93 SW13G22   29.25R
Scranton       CLOUDY    55  52  89 SW21G29   29.18R
$$
&&
KEY
WCI = Wind Chill Index
VSB = Visibility
HX  = Heat Index
$$



USA.gov is the U.S. government's official web portal to all federal, state and local government web resources and services.